• In Belgium
  • List of Countries
  • For 7 days
  • Water Temperature
  • Satellite Maps
  • Weather Map
  • Weather Widgets
  • user-avatar
    Login

    Hourly Weather Vanadzor

    Today, 21 November, Tuesday

    Time Temperature Precipitation Wind Pressure Humidity
    00:00 +4°C° 0 mm 2 mps 631 mmHg 71%
    01:00 +4°C° 0 mm 2 mps 631 mmHg 72%
    02:00 +4°C° 0 mm 2 mps 631 mmHg 73%
    03:00 +5°C° 0 mm 2 mps 630 mmHg 73%
    04:00 +5°C° 0 mm 2 mps 630 mmHg 73%
    05:00 +5°C° 0 mm 2 mps 630 mmHg 73%
    06:00 +5°C° 0 mm 2 mps 630 mmHg 73%
    07:00 +5°C° 0.1 mm 2 mps 630 mmHg 70%
    08:00 +6°C° 0.1 mm 2 mps 630 mmHg 67%
    09:00 +7°C° 0 mm 2 mps 630 mmHg 63%
    10:00 +8°C° 0.1 mm 2 mps 630 mmHg 60%
    11:00 +9°C° 0.1 mm 3 mps 630 mmHg 57%
    12:00 +10°C° 0.1 mm 3 mps 630 mmHg 55%
    13:00 +10°C° 0 mm 3 mps 630 mmHg 55%
    14:00 +10°C° 0 mm 3 mps 629 mmHg 55%
    15:00 +10°C° 0 mm 3 mps 629 mmHg 55%
    16:00 +8°C° 0 mm 3 mps 628 mmHg 61%
    17:00 +7°C° 0 mm 2 mps 628 mmHg 67%
    18:00 +6°C° 0 mm 2 mps 627 mmHg 74%
    19:00 +6°C° 0 mm 2 mps 627 mmHg 76%
    20:00 +5°C° 0 mm 2 mps 627 mmHg 77%
    21:00 +5°C° 0 mm 2 mps 626 mmHg 79%
    22:00 +5°C° 0.1 mm 2 mps 627 mmHg 81%
    23:00 +5°C° 0.1 mm 2 mps 627 mmHg 83%

    Tomorrow, 22 November, Wednesday

    Time Temperature Precipitation Wind Pressure Humidity
    00:00 +4°C° 0.1 mm 2 mps 627 mmHg 85%
    01:00 +4°C° 1.1 mm 2 mps 627 mmHg 87%
    02:00 +4°C° 1.1 mm 2 mps 627 mmHg 89%
    03:00 +5°C° 1.1 mm 1 mps 627 mmHg 91%
    04:00 +3°C° 1.4 mm 2 mps 627 mmHg 92%
    05:00 +3°C° 1.4 mm 2 mps 627 mmHg 92%
    06:00 +2°C° 1.4 mm 2 mps 627 mmHg 92%
    07:00 +3°C° 1.3 mm 1 mps 627 mmHg 92%
    08:00 +3°C° 1.3 mm 1 mps 627 mmHg 92%
    09:00 +3°C° 1.3 mm 1 mps 627 mmHg 92%
    10:00 +3°C° 1 mm 1 mps 627 mmHg 91%
    11:00 +2°C° 1 mm 2 mps 627 mmHg 91%
    12:00 +2°C° 1 mm 2 mps 627 mmHg 90%
    13:00 +2°C° 0.9 mm 2 mps 627 mmHg 90%
    14:00 +1°C° 0.9 mm 2 mps 627 mmHg 90%
    15:00 +1°C° 0.9 mm 2 mps 627 mmHg 89%
    16:00 -1°C° 0.5 mm 2 mps 627 mmHg 90%
    17:00 -1°C° 0.5 mm 2 mps 628 mmHg 90%
    18:00 0°C° 0.5 mm 1 mps 628 mmHg 90%
    19:00 0°C° 0.3 mm 1 mps 628 mmHg 90%
    20:00 -1°C° 0.3 mm 1 mps 629 mmHg 90%
    21:00 -1°C° 0.3 mm 1 mps 629 mmHg 90%
    22:00 -1°C° 0.2 mm 1 mps 629 mmHg 90%
    23:00 -2°C° 0.2 mm 1 mps 629 mmHg 89%

    Day after tomorrow, 23 November, Thursday

    Time Temperature Precipitation Wind Pressure Humidity
    00:00 -2°C° 0.2 mm 1 mps 629 mmHg 88%
    01:00 -3°C° 0 mm 1 mps 629 mmHg 87%
    02:00 -3°C° 0 mm 1 mps 629 mmHg 86%
    03:00 -4°C° 0 mm 1 mps 629 mmHg 85%
    04:00 -7°C° 0 mm 2 mps 629 mmHg 84%
    05:00 -7°C° 0 mm 2 mps 629 mmHg 83%
    06:00 -8°C° 0 mm 2 mps 629 mmHg 81%
    07:00 -7°C° 0 mm 2 mps 629 mmHg 81%
    08:00 -7°C° 0 mm 2 mps 629 mmHg 80%
    09:00 -6°C° 0 mm 2 mps 630 mmHg 80%
    10:00 -6°C° 0.1 mm 3 mps 630 mmHg 78%
    11:00 -5°C° 0.1 mm 3 mps 630 mmHg 75%
    12:00 -4°C° 0.1 mm 3 mps 630 mmHg 73%
    13:00 -4°C° 0.1 mm 3 mps 630 mmHg 74%
    14:00 -4°C° 0.1 mm 3 mps 630 mmHg 75%
    15:00 -4°C° 0.1 mm 3 mps 630 mmHg 76%
    16:00 -4°C° 0.1 mm 2 mps 630 mmHg 78%
    17:00 -5°C° 0.1 mm 2 mps 630 mmHg 80%
    18:00 -4°C° 0.1 mm 1 mps 631 mmHg 82%
    19:00 -4°C° 0.1 mm 1 mps 631 mmHg 84%
    20:00 -4°C° 0.1 mm 1 mps 631 mmHg 85%
    21:00 -4°C° 0.1 mm 1 mps 631 mmHg 87%
    22:00 -6°C° 0.2 mm 1 mps 631 mmHg 88%
    23:00 -6°C° 0.2 mm 1 mps 632 mmHg 89%

    24 November, Friday

    Time Temperature Precipitation Wind Pressure Humidity
    00:00 -6°C° 0.2 mm 1 mps 632 mmHg 90%
    01:00 -6°C° 0.2 mm 1 mps 632 mmHg 90%
    02:00 -6°C° 0.2 mm 1 mps 632 mmHg 90%
    03:00 -7°C° 0.2 mm 1 mps 632 mmHg 90%
    04:00 -7°C° 0.1 mm 1 mps 632 mmHg 89%
    05:00 -7°C° 0.1 mm 1 mps 632 mmHg 88%
    06:00 -8°C° 0.1 mm 1 mps 632 mmHg 87%
    07:00 -7°C° 0.1 mm 1 mps 632 mmHg 86%
    08:00 -6°C° 0.1 mm 1 mps 633 mmHg 84%
    09:00 -6°C° 0.1 mm 1 mps 633 mmHg 83%
    10:00 -4°C° 0 mm 1 mps 633 mmHg 80%
    11:00 -3°C° 0 mm 1 mps 633 mmHg 78%
    12:00 -3°C° 0 mm 1 mps 633 mmHg 75%
    13:00 -3°C° 0 mm 1 mps 633 mmHg 77%
    14:00 -3°C° 0 mm 1 mps 633 mmHg 79%
    15:00 -3°C° 0 mm 1 mps 633 mmHg 81%
    16:00 -4°C° 0 mm 1 mps 633 mmHg 82%
    17:00 -6°C° 0 mm 1 mps 633 mmHg 83%
    18:00 -7°C° 0 mm 1 mps 632 mmHg 85%
    19:00 -7°C° 0.1 mm 1 mps 633 mmHg 84%
    20:00 -7°C° 0.1 mm 1 mps 633 mmHg 83%
    21:00 -7°C° 0.1 mm 1 mps 634 mmHg 82%
    22:00 -7°C° 0.1 mm 1 mps 634 mmHg 82%
    23:00 -8°C° 0.1 mm 1 mps 634 mmHg 82%

    25 November, Saturday

    Time Temperature Precipitation Wind Pressure Humidity
    00:00 -8°C° 0.1 mm 1 mps 634 mmHg 82%
    01:00 -8°C° 0.1 mm 1 mps 635 mmHg 82%
    02:00 -8°C° 0.1 mm 1 mps 635 mmHg 81%
    03:00 -8°C° 0.1 mm 1 mps 635 mmHg 81%
    04:00 -9°C° 0.1 mm 1 mps 635 mmHg 81%
    05:00 -10°C° 0.1 mm 2 mps 636 mmHg 81%
    06:00 -10°C° 0.1 mm 2 mps 636 mmHg 80%
    07:00 -9°C° 0.1 mm 2 mps 637 mmHg 80%
    08:00 -9°C° 0.1 mm 2 mps 637 mmHg 80%
    09:00 -8°C° 0.1 mm 2 mps 638 mmHg 79%
    10:00 -7°C° 0 mm 2 mps 638 mmHg 77%
    11:00 -6°C° 0 mm 2 mps 638 mmHg 75%
    12:00 -5°C° 0 mm 2 mps 639 mmHg 73%
    13:00 -5°C° 0 mm 2 mps 639 mmHg 73%
    14:00 -5°C° 0 mm 2 mps 638 mmHg 74%
    15:00 -6°C° 0 mm 2 mps 638 mmHg 75%
    16:00 -7°C° 0 mm 2 mps 638 mmHg 75%
    17:00 -9°C° 0 mm 2 mps 638 mmHg 75%
    18:00 -12°C° 0 mm 2 mps 638 mmHg 75%
    19:00 -12°C° 0 mm 2 mps 639 mmHg 74%
    20:00 -12°C° 0 mm 2 mps 639 mmHg 73%
    21:00 -13°C° 0 mm 2 mps 639 mmHg 71%
    22:00 -13°C° 0 mm 2 mps 639 mmHg 71%
    23:00 -13°C° 0 mm 2 mps 639 mmHg 71%

    26 November, Sunday

    Time Temperature Precipitation Wind Pressure Humidity
    00:00 -13°C° 0 mm 2 mps 639 mmHg 71%
    01:00 -12°C° 0 mm 2 mps 639 mmHg 71%
    02:00 -12°C° 0 mm 2 mps 639 mmHg 71%
    03:00 -12°C° 0 mm 2 mps 639 mmHg 71%
    04:00 -12°C° 0 mm 2 mps 639 mmHg 71%
    05:00 -12°C° 0 mm 2 mps 639 mmHg 71%
    06:00 -13°C° 0 mm 2 mps 638 mmHg 71%
    07:00 -10°C° 0 mm 2 mps 639 mmHg 71%
    08:00 -9°C° 0 mm 2 mps 639 mmHg 71%
    09:00 -8°C° 0 mm 2 mps 639 mmHg 70%
    10:00 -7°C° 0 mm 2 mps 639 mmHg 68%
    11:00 -5°C° 0 mm 2 mps 639 mmHg 66%
    12:00 -1°C° 0 mm 1 mps 639 mmHg 64%
    13:00 -2°C° 0 mm 1 mps 639 mmHg 65%
    14:00 -2°C° 0 mm 1 mps 638 mmHg 67%
    15:00 -2°C° 0 mm 1 mps 638 mmHg 68%
    16:00 -4°C° 0 mm 1 mps 638 mmHg 67%
    17:00 -7°C° 0 mm 2 mps 637 mmHg 65%
    18:00 -9°C° 0 mm 2 mps 637 mmHg 63%
    19:00 -9°C° 0 mm 2 mps 637 mmHg 61%
    20:00 -9°C° 0 mm 2 mps 637 mmHg 59%
    21:00 -9°C° 0 mm 2 mps 637 mmHg 57%
    22:00 -9°C° 0 mm 2 mps 637 mmHg 57%
    23:00 -9°C° 0 mm 2 mps 637 mmHg 56%
    Show more